| time (UTC) | temp F | wind direction | speed MPH | gust MPH | rain 1hr in | rain 24hr in | rain mn in | humidity % | barometer mb |
| 20260905075615 | 69 | 332 | 1.0 | 3.0 | 0.00 | 0.01 | 0.00 | 75 | 1025.2 |
| 20260905074614 | 69 | 334 | 2.0 | 5.0 | 0.00 | 0.01 | 0.00 | 75 | 1025.2 |
| 20260905073617 | 70 | 303 | 2.0 | 4.0 | 0.00 | 0.01 | 0.00 | 75 | 1025.2 |
| 20260905072715 | 70 | 337 | 1.0 | 2.0 | 0.00 | 0.01 | 0.00 | 75 | 1025.2 |
| 20260905070716 | 70 | 292 | 2.0 | 3.0 | 0.00 | 0.01 | 0.00 | 73 | 1025.3 |
| 20260905064816 | 71 | 307 | 2.0 | 6.0 | 0.00 | 0.01 | 0.00 | 71 | 1025.5 |
| 20260905063816 | 71 | 292 | 1.0 | 3.0 | 0.00 | 0.09 | 0.00 | 71 | 1025.5 |
| 20260905061914 | 72 | 300 | 1.0 | 2.0 | 0.00 | 0.37 | 0.00 | 69 | 1025.7 |
| 20260905061013 | 72 | 318 | 1.0 | 4.0 | 0.00 | 0.80 | 0.00 | 69 | 1025.6 |
| 20260905060015 | 72 | 321 | 1.0 | 2.0 | 0.00 | 0.98 | 0.00 | 69 | 1025.8 |
| 20260905055113 | 72 | 319 | 2.0 | 3.0 | 0.00 | 0.98 | 0.00 | 69 | 1025.7 |
| 20260905054213 | 72 | 333 | 2.0 | 3.0 | 0.00 | 0.98 | 0.00 | 70 | 1025.7 |
| 20260905052216 | 72 | 334 | 1.0 | 2.0 | 0.00 | 0.98 | 0.00 | 70 | 1026.0 |
| 20260905050316 | 72 | 316 | 1.0 | 4.0 | 0.00 | 0.98 | 0.00 | 73 | 1026.3 |
| 20260905045415 | 72 | 315 | 1.0 | 1.0 | 0.00 | 0.98 | 0.00 | 74 | 1026.3 |
| 20260905044417 | 72 | 337 | 0.0 | 0.0 | 0.00 | 0.98 | 0.00 | 74 | 1026.3 |
| 20260905043514 | 72 | 337 | 0.0 | 1.0 | 0.00 | 0.98 | 0.00 | 75 | 1026.3 |
| 20260905042516 | 72 | 337 | 0.0 | 1.0 | 0.00 | 0.98 | 0.00 | 76 | 1026.4 |
| 20260905041613 | 72 | 337 | 0.0 | 1.0 | 0.00 | 0.98 | 0.00 | 77 | 1026.5 |
| 20260905040615 | 72 | 337 | 1.0 | 1.0 | 0.00 | 0.98 | 0.00 | 77 | 1026.5 |
| 20260905035620 | 72 | 337 | 1.0 | 4.0 | 0.00 | 0.98 | 0.98 | 78 | 1026.5 |
| 20260905034622 | 72 | 337 | 0.0 | 1.0 | 0.00 | 0.98 | 0.98 | 80 | 1026.5 |
| 20260905033622 | 71 | 292 | 1.0 | 2.0 | 0.00 | 0.98 | 0.98 | 84 | 1026.5 |
| 20260905032620 | 71 | 315 | 1.0 | 2.0 | 0.00 | 0.98 | 0.98 | 86 | 1026.4 |
| 20260905031622 | 71 | 315 | 1.0 | 2.0 | 0.00 | 0.98 | 0.98 | 86 | 1026.3 |
| 20260905031519 | 71 | 315 | 1.0 | 1.0 | 0.00 | 0.98 | 0.98 | 87 | 1026.3 |
| 20260905030520 | 70 | 337 | 1.0 | 2.0 | 0.00 | 0.98 | 0.98 | 89 | 1026.3 |
| 20260905025521 | 69 | 337 | 0.0 | 0.0 | 0.00 | 0.98 | 0.98 | 89 | 1026.3 |
| 20260905024523 | 69 | 337 | 0.0 | 0.0 | 0.00 | 0.98 | 0.98 | 89 | 1026.2 |
| 20260905023522 | 69 | 337 | 0.0 | 0.0 | 0.00 | 0.98 | 0.98 | 88 | 1026.2 |
| 20260905022521 | 70 | 337 | 0.0 | 0.0 | 0.00 | 0.98 | 0.98 | 89 | 1026.3 |
| 20260905020521 | 70 | 337 | 0.0 | 0.0 | 0.00 | 0.98 | 0.98 | 88 | 1026.4 |
| 20260905015521 | 70 | 337 | 0.0 | 0.0 | 0.00 | 0.98 | 0.98 | 87 | 1026.3 |
| 20260905014521 | 71 | 337 | 0.0 | 0.0 | 0.00 | 0.98 | 0.98 | 86 | 1026.3 |
| 20260905013521 | 71 | 337 | 0.0 | 0.0 | 0.00 | 0.98 | 0.98 | 86 | 1026.3 |
| 20260905012520 | 71 | 337 | 0.0 | 0.0 | 0.00 | 0.98 | 0.98 | 86 | 1026.3 |
| 20260905011619 | 71 | 337 | 0.0 | 0.0 | 0.00 | 0.98 | 0.98 | 85 | 1026.3 |
| 20260905010620 | 72 | 337 | 0.0 | 0.0 | 0.00 | 0.98 | 0.98 | 84 | 1026.4 |
| 20260905005621 | 72 | 337 | 0.0 | 0.0 | 0.00 | 0.98 | 0.98 | 84 | 1026.5 |
| 20260905004622 | 72 | 337 | 0.0 | 0.0 | 0.00 | 0.98 | 0.98 | 83 | 1026.3 |
| 20260905003621 | 72 | 337 | 0.0 | 0.0 | 0.00 | 0.98 | 0.98 | 83 | 1026.3 |
| 20260905002719 | 72 | 337 | 0.0 | 0.0 | 0.00 | 0.98 | 0.98 | 80 | 1026.5 |
| 20260905000721 | 73 | 337 | 0.0 | 0.0 | 0.00 | 0.98 | 0.98 | 78 | 1026.3 |
| 20260904235722 | 73 | 337 | 0.0 | 0.0 | 0.00 | 0.98 | 0.98 | 78 | 1026.3 |
| 20260904233820 | 75 | 337 | 0.0 | 0.0 | 0.00 | 0.98 | 0.98 | 74 | 1026.0 |
| 20260904232821 | 75 | 337 | 0.0 | 0.0 | 0.00 | 0.98 | 0.98 | 73 | 1026.1 |
| 20260904231819 | 76 | 337 | 0.0 | 0.0 | 0.00 | 0.98 | 0.98 | 72 | 1025.8 |
| 20260904224920 | 78 | 337 | 0.0 | 0.0 | 0.00 | 0.98 | 0.98 | 68 | 1025.9 |
| 20260904223920 | 78 | 337 | 0.0 | 0.0 | 0.00 | 0.98 | 0.98 | 66 | 1026.0 |
| 20260904222922 | 79 | 292 | 0.0 | 1.0 | 0.00 | 0.98 | 0.98 | 65 | 1025.8 |
| 20260904220921 | 79 | 315 | 0.0 | 2.0 | 0.00 | 0.98 | 0.98 | 63 | 1026.0 |
| 20260904215920 | 80 | 337 | 0.0 | 0.0 | 0.00 | 0.98 | 0.98 | 61 | 1025.8 |
| 20260904214920 | 80 | 337 | 0.0 | 1.0 | 0.00 | 0.98 | 0.98 | 59 | 1025.7 |
| 20260904213920 | 80 | 299 | 1.0 | 3.0 | 0.00 | 0.98 | 0.98 | 60 | 1025.7 |
| 20260904211919 | 81 | 315 | 0.0 | 0.0 | 0.00 | 0.98 | 0.98 | 59 | 1025.8 |
| 20260904210921 | 81 | 315 | 0.0 | 2.0 | 0.00 | 0.98 | 0.98 | 59 | 1025.8 |
| 20260904205920 | 81 | 315 | 1.0 | 3.0 | 0.00 | 0.98 | 0.98 | 59 | 1026.0 |
| 20260904204919 | 81 | 315 | 2.0 | 4.0 | 0.00 | 0.98 | 0.98 | 58 | 1025.9 |
| 20260904203920 | 82 | 315 | 0.0 | 0.0 | 0.00 | 0.98 | 0.98 | 57 | 1026.0 |
| 20260904202921 | 81 | 315 | 0.0 | 1.0 | 0.00 | 0.98 | 0.98 | 57 | 1025.9 |
| 20260904201921 | 82 | 315 | 2.0 | 4.0 | 0.00 | 0.98 | 0.98 | 55 | 1026.0 |
| 20260904200921 | 83 | 315 | 0.0 | 2.0 | 0.00 | 0.98 | 0.98 | 55 | 1026.1 |
| 20260904200020 | 83 | 315 | 0.0 | 2.0 | 0.00 | 0.98 | 0.98 | 53 | 1026.1 |
| 20260904195119 | 83 | 315 | 1.0 | 4.0 | 0.00 | 0.98 | 0.98 | 54 | 1026.1 |
| 20260904194121 | 83 | 315 | 2.0 | 4.0 | 0.00 | 0.98 | 0.98 | 54 | 1026.3 |
| 20260904193121 | 83 | 315 | 0.0 | 0.0 | 0.00 | 0.98 | 0.98 | 55 | 1026.4 |
| 20260904192219 | 83 | 315 | 2.0 | 4.0 | 0.00 | 0.98 | 0.98 | 54 | 1026.5 |
| 20260904191223 | 83 | 315 | 2.0 | 4.0 | 0.00 | 0.98 | 0.98 | 54 | 1026.6 |
| 20260904190220 | 83 | 315 | 2.0 | 5.0 | 0.00 | 0.98 | 0.98 | 54 | 1026.4 |
| 20260904185221 | 84 | 315 | 2.0 | 6.0 | 0.00 | 0.98 | 0.98 | 54 | 1026.5 |
| 20260904184320 | 83 | 315 | 1.0 | 2.0 | 0.00 | 0.98 | 0.98 | 55 | 1026.5 |
| 20260904183320 | 84 | 315 | 2.0 | 5.0 | 0.00 | 0.98 | 0.98 | 53 | 1026.7 |
| 20260904182419 | 84 | 315 | 0.0 | 0.0 | 0.00 | 0.98 | 0.98 | 54 | 1026.4 |
| 20260904181421 | 83 | 315 | 3.0 | 4.0 | 0.00 | 0.98 | 0.98 | 55 | 1026.4 |
| 20260904180421 | 82 | 315 | 1.0 | 2.0 | 0.00 | 0.98 | 0.98 | 55 | 1026.5 |
| 20260904175421 | 82 | 315 | 2.0 | 3.0 | 0.00 | 0.98 | 0.98 | 55 | 1026.6 |
| 20260904174519 | 82 | 315 | 1.0 | 3.0 | 0.00 | 0.98 | 0.98 | 56 | 1026.3 |
| 20260904173522 | 82 | 315 | 2.0 | 6.0 | 0.00 | 0.98 | 0.98 | 57 | 1026.5 |
| 20260904172521 | 83 | 315 | 3.0 | 6.0 | 0.00 | 0.98 | 0.98 | 59 | 1026.5 |
| 20260904171520 | 82 | 315 | 2.0 | 5.0 | 0.00 | 0.98 | 0.98 | 60 | 1026.5 |
| 20260904170619 | 83 | 315 | 2.0 | 6.0 | 0.00 | 0.98 | 0.98 | 60 | 1026.7 |
| 20260904164720 | 81 | 315 | 0.0 | 2.0 | 0.00 | 0.98 | 0.98 | 64 | 1026.5 |
| 20260904163722 | 82 | 315 | 0.0 | 0.0 | 0.00 | 0.98 | 0.98 | 67 | 1026.5 |
| 20260904162721 | 81 | 315 | 3.0 | 6.0 | 0.00 | 0.98 | 0.98 | 68 | 1026.6 |
| 20260904160722 | 80 | 315 | 2.0 | 5.0 | 0.00 | 0.98 | 0.98 | 68 | 1026.8 |
| 20260904154820 | 81 | 315 | 3.0 | 7.0 | 0.00 | 0.98 | 0.98 | 73 | 1026.8 |
| 20260904153822 | 81 | 315 | 1.0 | 2.0 | 0.00 | 0.98 | 0.98 | 74 | 1026.9 |
| 20260904152920 | 80 | 315 | 2.0 | 6.0 | 0.00 | 0.98 | 0.98 | 76 | 1027.0 |
| 20260904151921 | 80 | 315 | 0.0 | 3.0 | 0.00 | 0.98 | 0.98 | 77 | 1027.0 |
| 20260904150019 | 79 | 315 | 1.0 | 3.0 | 0.00 | 0.98 | 0.98 | 78 | 1027.0 |
| 20260904145020 | 79 | 315 | 2.0 | 3.0 | 0.00 | 0.98 | 0.98 | 78 | 1027.0 |
| 20260904144020 | 78 | 315 | 1.0 | 4.0 | 0.00 | 0.98 | 0.98 | 79 | 1027.0 |
| 20260904143021 | 77 | 315 | 0.0 | 2.0 | 0.00 | 0.98 | 0.98 | 79 | 1027.0 |
| 20260904142020 | 79 | 315 | 1.0 | 3.0 | 0.00 | 0.98 | 0.98 | 78 | 1027.0 |
| 20260904141021 | 78 | 315 | 1.0 | 2.0 | 0.00 | 0.98 | 0.98 | 80 | 1026.8 |
| 20260904140020 | 76 | 315 | 1.0 | 1.0 | 0.00 | 0.98 | 0.98 | 83 | 1026.8 |
| 20260904135020 | 76 | 315 | 1.0 | 4.0 | 0.00 | 0.98 | 0.98 | 84 | 1026.8 |
| 20260904133119 | 74 | 315 | 2.0 | 3.0 | 0.00 | 0.98 | 0.98 | 86 | 1026.8 |
| 20260904132123 | 74 | 315 | 2.0 | 4.0 | 0.00 | 0.98 | 0.98 | 87 | 1026.7 |
| 20260904131122 | 74 | 310 | 3.0 | 8.0 | 0.00 | 0.98 | 0.98 | 87 | 1026.8 |
| 20260904130220 | 74 | 337 | 2.0 | 4.0 | 0.00 | 0.98 | 0.98 | 87 | 1026.7 |
| 20260904125222 | 74 | 337 | 2.0 | 6.0 | 0.00 | 0.98 | 0.98 | 88 | 1026.8 |
| 20260904124221 | 73 | 292 | 4.0 | 6.0 | 0.00 | 0.98 | 0.98 | 89 | 1026.7 |
| 20260904123221 | 73 | 292 | 2.0 | 4.0 | 0.00 | 0.98 | 0.98 | 90 | 1026.7 |
| 20260904122320 | 73 | 292 | 2.0 | 4.0 | 0.00 | 0.98 | 0.98 | 91 | 1026.7 |
| 20260904121323 | 73 | 292 | 1.0 | 2.0 | 0.00 | 0.98 | 0.98 | 92 | 1026.8 |
| 20260904120420 | 73 | 297 | 2.0 | 4.0 | 0.00 | 0.98 | 0.98 | 92 | 1026.8 |
| 20260904115419 | 73 | 323 | 2.0 | 4.0 | 0.00 | 0.98 | 0.98 | 93 | 1026.7 |
| 20260904113421 | 74 | 292 | 2.0 | 3.0 | 0.00 | 0.98 | 0.98 | 93 | 1026.7 |
| 20260904112423 | 74 | 297 | 1.0 | 4.0 | 0.00 | 0.98 | 0.98 | 94 | 1026.7 |
| 20260904111520 | 74 | 298 | 2.0 | 3.0 | 0.00 | 0.98 | 0.98 | 95 | 1026.6 |
| 20260904110522 | 73 | 292 | 1.0 | 2.0 | 0.00 | 0.98 | 0.98 | 94 | 1026.7 |
| 20260904105618 | 73 | 292 | 0.0 | 1.0 | 0.00 | 0.98 | 0.98 | 94 | 1026.6 |
| 20260904104620 | 72 | 292 | 0.0 | 1.0 | 0.01 | 0.98 | 0.98 | 94 | 1026.3 |
| 20260904103621 | 72 | 292 | 0.0 | 0.0 | 0.01 | 0.98 | 0.98 | 94 | 1026.1 |
| 20260904102719 | 72 | 292 | 1.0 | 2.0 | 0.01 | 0.98 | 0.98 | 94 | 1026.3 |
| 20260904101719 | 72 | 292 | 0.0 | 0.0 | 0.01 | 0.98 | 0.98 | 94 | 1026.0 |
| 20260904100721 | 73 | 292 | 2.0 | 4.0 | 0.01 | 0.98 | 0.98 | 94 | 1025.8 |
| 20260904095720 | 73 | 292 | 0.0 | 0.0 | 0.01 | 0.98 | 0.98 | 95 | 1025.7 |
| 20260904094721 | 73 | 292 | 0.0 | 0.0 | 0.00 | 0.97 | 0.97 | 94 | 1025.8 |
| 20260904093720 | 73 | 292 | 0.0 | 0.0 | 0.00 | 0.97 | 0.97 | 94 | 1025.7 |
| 20260904092720 | 74 | 292 | 0.0 | 0.0 | 0.00 | 0.97 | 0.97 | 95 | 1025.8 |
| 20260904090819 | 74 | 292 | 0.0 | 0.0 | 0.00 | 0.97 | 0.97 | 95 | 1025.6 |
| 20260904084918 | 74 | 292 | 0.0 | 0.0 | 0.00 | 0.97 | 0.97 | 95 | 1025.8 |
| 20260904083923 | 74 | 292 | 0.0 | 1.0 | 0.00 | 0.97 | 0.97 | 95 | 1026.0 |
| 20260904082921 | 74 | 292 | 1.0 | 2.0 | 0.00 | 0.97 | 0.97 | 95 | 1026.1 |
| 20260904082021 | 74 | 337 | 2.0 | 3.0 | 0.00 | 0.97 | 0.97 | 94 | 1026.1 |
| 20260904081020 | 74 | 157 | 0.0 | 0.0 | 0.00 | 0.97 | 0.97 | 94 | 1025.8 |